Regional Weather Roundup
Issued by NWS Cleveland, OH

Home | Current Version | Previous Version | Graphics & Text | Print | Product List | Glossary On
Versions: 1 2 3 4 5 6 7 8 9 10 11 12 13 14 15 16 17 18 19 20 21 22 23 24 25 26 27 28 29 30 31 32 33 34 35 36 37 38 39 40 41 42 43 44 45 46 47 48 49 50
000
ASUS41 KCLE 251810
RWRCLE
OHIO REGIONAL WEATHER ROUNDUP
NATIONAL WEATHER SERVICE WILMINGTON, OH
200 PM EDT SAT APR 25 2015

NOTE: "FAIR" INDICATES FEW OR NO CLOUDS BELOW 12,000 FEET WITH NO
SIGNIFICANT WEATHER AND/OR OBSTRUCTIONS TO VISIBILITY.

OHZ001>008-015>018-024>027-034-035-043-044-251900-
   NORTHWEST OHIO

CITY           SKY/WX    TMP DP  RH WIND       PRES   REMARKS
DEFIANCE       PTSUNNY   49  40  71 E14       29.79F
FINDLAY        CLOUDY    49  40  71 E12       29.78F
TOLEDO EXPRESS CLOUDY    47  35  63 E16       29.82S
TOLEDO EXEC    CLOUDY    48  37  65 E13       29.83F
LIMA           CLOUDY    48  38  68 E16       29.76F
$$

OHZ009>014-019>023-028>033-038-089-251900-
   NORTHEAST OHIO

CITY           SKY/WX    TMP DP  RH WIND       PRES   REMARKS
CLE-HOPKINS    CLOUDY    50  30  46 NE18      29.85F
CLE-LAKEFRONT  CLOUDY    47  30  51 NE21G26   29.83F
CUY CO. ARPT   PTSUNNY   50  28  43 NE16      29.84F
LORAIN-ELYRIA  CLOUDY    47  31  53 NE15      29.82F
ASHTABULA      CLOUDY    46  23  40 N8        29.86F
AKRON-CANTON   CLOUDY    49  31  49 E13       29.82F
WOOSTER        CLOUDY    47  34  60 E13       29.81F
MANSFIELD      CLOUDY    46  36  68 E12       29.80S
YOUNGSTOWN     CLOUDY    50  22  33 N9        29.82F
$$

OHZ042-051>053-060>062-070>072-077>081-251900-
  SOUTHWEST OHIO

CITY           SKY/WX    TMP DP  RH WIND       PRES   REMARKS
CINC-COVINGTON RAIN      48  46  93 E14       29.64F FOG
CINC-LUNKEN    RAIN      47  46  97 NE9       29.69F FOG
HAMILTON       LGT RAIN  47  44  90 E12       29.69F
DAYTON         LGT RAIN  42  39  89 E13       29.71F FOG
WRIGHT-PAT AFB LGT RAIN  42  40  93 E15       29.70F FOG
DAYTON GENERAL LGT RAIN  41  37  86 E9G20     29.69F
WILMINGTON     LGT RAIN  42  35  76 E14G24    29.70F
$$

OHZ036-037-039>041-045>050-054>059-063>069-073>076-082>088-251900-
  CENTRAL AND SOUTHEAST OHIO

CITY           SKY/WX    TMP DP  RH WIND       PRES   REMARKS
COLUMBUS       LGT RAIN  46  36  68 E10       29.75F
OSU AIRPORT    LGT RAIN  46  36  68 E9        29.76F
BOLTON FIELD   LGT RAIN  45  37  76 E6        29.76F
RICKENBACK AFB RAIN      44  37  74 E6        29.75F
NEWARK         LGT RAIN  46  37  71 NE6       29.76F
MARION         CLOUDY    49  38  65 E14       29.77F
LANCASTER      LGT RAIN  47  35  63 E9        29.75F
ZANESVILLE     LGT RAIN  48  34  58 E10       29.78F
NEW PHILLY     CLOUDY    53  33  46 NE8       29.81F
$$



USA.gov is the U.S. government's official web portal to all federal, state and local government web resources and services.